Location: Ehrke Reservoir
(40.0279°N, 99.6641°W)
Time: 23:03:05
(UTC+00:00)

Cosmos 2297 Rocket - Pass Details

Date: 20 January 2020
Orbit: 838 x 845 km, 71.0° (Epoch: 18 February)

Event Time Altitude Azimuth Distance (km) Brightness Sun altitude
Exits shadow 10:43:48 27° 128° (SE) 1,570 3.9 -36.6°
Drops below altitude 10° 10:46:24 10° 140° (SE) 2,459 5.0 -36.1°
Sets 10:48:53 0° 145° (SE) 3,389 5.7 -35.7°
